FW6045 Weather Reports


Display with metric or nautical units.
time (UTC)temp
F
wind
direction
speed
MPH
gust
MPH
rain 1hr
in
rain 24hr
in
rain mn
in
humidity
%
barometer
mb
20260506160058 52 5 6.0 18.0 0.00 1.12 0.45 69 1012.6
20260506154557 52 29 9.0 15.0 0.00 1.12 0.45 70 1012.5
20260506153101 52 42 8.0 14.0 0.00 1.12 0.45 69 1012.5
20260506151608 51 326 8.0 16.0 0.00 1.12 0.45 72 1012.2
20260506150106 51 28 4.0 11.0 0.00 1.12 0.45 77 1012.3
20260506144624 50 30 8.0 13.0 0.00 1.12 0.45 75 1012.0
20260506143103 49 327 7.0 14.0 0.00 1.12 0.45 78 1011.8
20260506141559 48 352 9.0 15.0 0.00 1.12 0.45 79 1011.7
20260506140111 48 312 9.0 12.0 0.00 1.12 0.45 83 1011.4
20260506134555 47 333 8.0 14.0 0.00 1.12 0.45 85 1011.1
20260506133059 46 37 7.0 11.0 0.00 1.12 0.45 88 1011.0
20260506131558 45 352 7.0 12.0 0.00 1.12 0.45 90 1011.4
20260506130126 45 321 5.0 10.0 0.00 1.12 0.45 91 1010.9
20260506124556 44 333 4.0 10.0 0.00 1.12 0.45 93 1010.9
20260506123059 44 337 4.0 8.0 0.00 1.12 0.45 94 1010.7
20260506121603 44 304 2.0 5.0 0.00 1.12 0.45 95 1011.0
20260506120100 43 254 1.0 6.0 0.00 1.12 0.45 95 1010.7
20260506114557 43 292 3.0 5.0 0.00 1.12 0.45 94 1010.2
20260506113105 43 319 3.0 6.0 0.00 1.12 0.45 94 1009.9
20260506111557 42 303 2.0 6.0 0.00 1.12 0.45 94 1009.8
20260506110104 42 287 5.0 10.0 0.00 1.12 0.45 93 1009.3
20260506104616 42 355 4.0 8.0 0.00 1.14 0.45 93 1009.1
20260506103059 42 336 5.0 10.0 0.00 1.14 0.45 93 1009.2
20260506101603 43 355 4.0 9.0 0.00 1.14 0.45 92 1008.7
20260506100058 43 339 6.0 10.0 0.00 1.14 0.45 92 1008.6
20260506094600 43 47 7.0 11.0 0.00 1.19 0.45 92 1007.9
20260506093104 43 17 6.0 11.0 0.00 1.19 0.45 92 1008.2
20260506091556 43 17 7.0 12.0 0.00 1.19 0.45 92 1008.1
20260506084559 43 339 8.0 17.0 0.00 1.19 0.45 94 1007.8
20260506083056 43 5 12.0 21.0 0.00 1.19 0.45 94 1007.8
20260506081556 44 5 11.0 24.0 0.00 1.19 0.45 94 1007.3
20260506073104 46 336 10.0 23.0 0.10 1.19 0.45 96 1006.8
20260506071611 47 39 11.0 21.0 0.10 1.19 0.45 96 1006.9
20260506061558 51 12 9.0 15.0 0.18 1.09 0.35 96 1005.7
20260506044603 58 224 8.0 17.0 0.09 0.80 0.06 97 1005.6
20260506043101 58 215 10.0 17.0 0.06 0.77 0.03 97 1005.4
20260506041605 58 188 10.0 21.0 0.03 0.74 0.00 97 1005.3
20260506040057 59 176 14.0 25.0 0.03 0.74 0.00 97 1005.3
20260506034600 59 194 11.0 25.0 0.00 0.71 0.71 97 1005.6
20260506033111 59 135 8.0 18.0 0.00 0.71 0.71 97 1005.5
20260506031558 59 157 7.0 11.0 0.01 0.71 0.71 96 1005.5
20260506030100 59 205 9.0 16.0 0.06 0.71 0.71 96 1005.8
20260506024556 59 209 8.0 12.0 0.10 0.71 0.71 96 1005.9
20260506023101 58 207 7.0 11.0 0.11 0.71 0.71 96 1005.9
20260506021558 59 205 3.0 8.0 0.10 0.70 0.70 96 1006.2
20260506020054 59 256 4.0 7.0 0.05 0.65 0.65 95 1006.6
20260506014559 59 338 4.0 5.0 0.01 0.61 0.61 95 1006.1
20260506013055 59 331 6.0 9.0 0.00 0.60 0.60 94 1006.2
20260506011558 59 280 2.0 7.0 0.00 0.60 0.60 94 1005.9
20260506010057 60 300 5.0 8.0 0.00 0.60 0.60 94 1006.2
20260506004558 60 203 7.0 13.0 0.00 0.60 0.60 93 1006.1
20260506003056 60 239 6.0 12.0 0.01 0.60 0.60 93 1005.7
20260506001618 60 221 6.0 12.0 0.02 0.60 0.60 94 1005.5
20260505234601 60 186 6.0 15.0 0.03 0.60 0.60 94 1005.8
20260505233101 60 158 7.0 17.0 0.02 0.58 0.58 95 1005.9
20260505231558 60 129 7.0 10.0 0.01 0.58 0.58 96 1005.8
20260505230119 60 122 6.0 9.0 0.02 0.58 0.58 95 1006.1
20260505224600 60 120 5.0 8.0 0.02 0.57 0.57 96 1006.2
20260505223100 60 131 2.0 7.0 0.03 0.57 0.57 97 1006.6
20260505221600 60 155 5.0 17.0 0.04 0.57 0.57 97 1006.7
20260505220100 60 157 3.0 6.0 0.03 0.56 0.56 97 1006.8
20260505214609 60 173 5.0 11.0 0.03 0.55 0.55 97 1007.1
20260505213103 60 172 4.0 9.0 0.05 0.54 0.54 97 1007.2
20260505211614 60 175 3.0 14.0 0.09 0.52 0.52 97 1007.2
20260505210107 60 193 7.0 15.0 0.15 0.52 0.52 97 1007.4
20260505204558 60 225 6.0 14.0 0.17 0.52 0.52 96 1007.7
20260505203101 60 204 8.0 15.0 0.17 0.49 0.49 96 1007.7
20260505201606 60 231 8.0 12.0 0.16 0.44 0.44 95 1008.0
20260505200057 60 215 6.0 16.0 0.11 0.38 0.38 95 1008.1
20260505194558 60 232 9.0 14.0 0.13 0.35 0.35 94 1008.2
20260505193057 60 198 6.0 12.0 0.25 0.32 0.32 93 1008.3
20260505191604 60 239 10.0 17.0 0.21 0.28 0.28 93 1008.3
20260505190112 60 235 11.0 22.0 0.20 0.27 0.27 92 1008.4
20260505184606 61 259 13.0 28.0 0.15 0.22 0.22 89 1008.5
20260505183059 66 252 9.0 16.0 0.00 0.07 0.07 74 1008.1
20260505181559 67 199 7.0 22.0 0.00 0.07 0.07 73 1008.0
20260505180059 67 175 8.0 24.0 0.00 0.07 0.07 73 1008.1
20260505174557 66 173 13.0 26.0 0.00 0.07 0.07 72 1008.2
20260505173058 66 202 13.0 22.0 0.00 0.07 0.07 73 1008.5
20260505171558 66 204 15.0 26.0 0.00 0.07 0.07 73 1008.5
20260505170106 65 188 10.0 21.0 0.00 0.07 0.07 73 1008.8
20260505164558 65 178 11.0 21.0 0.00 0.07 0.07 72 1008.8
20260505163107 65 203 11.0 22.0 0.00 0.07 0.07 72 1008.9
20260505161558 65 250 9.0 24.0 0.00 0.07 0.07 72 1008.9